User: anonymous   Login
Location: Theydon Bois
(51.6750°N, 0.1050°E)
Time: 11:35:48
(UTC+01:00)
Language:

Cosmos 1674 - Orbit

View from above orbital plane
View from above orbital plane
View from above satellite
View from above satellite

Ground track
Ground track

The orbit data is extracted from the following two-line orbital elements,

1 15944U 85069A   17293.84575970  .00000896  00000-0  41538-4 0  9996
2 15944  82.5061 104.7875 0018687  58.7208 301.5853 15.18613964757018
Epoch (UTC): 20 October 2017 20:17:53
Eccentricity: 0.0018687
inclination: 82.5061°
perigee height: 497 km
apogee height: 523 km
right ascension of ascending node: 104.7875°
argument of perigee: 58.7208°
revolutions per day: 15.18613964
mean anomaly at epoch: 301.5853°
orbit number at epoch: 75701

The dashed part of the orbit path shows where the satellite is in the earth's shadow,  

DLR